P/2012 T3 ( PanSTARRS )

Japanese version
Home page
Updated on February 20, 2021

---------------------------------------------------------------------

* Profile

Discovery Date October 10, 2012
Magnitude 21.3 mag
Discoverer Pan-STARRS 1 telescope (Haleakala)

* Pictures

* Orbital Elements

Epoch 2012 Apr. 23.0 TT = JDT 2456040.5                                         
T 2012 Apr. 28.80766 TT                                 Rudenko                 
q   2.3895230            (2000.0)            P               Q                  
n   0.06715306     Peri.  197.26191     +0.65838203     +0.73746642             
a   5.9945810      Node   114.19802     -0.66962277     +0.66524558             
e   0.6013862      Incl.    9.50262     -0.34371274     +0.11658298             
P  14.7                                                                         
From 37 observations 2012 Oct. 10-Nov. 1, mean residual 1".1.                   

* Magnitudes Graph

        m1 = 14.5 + 5 log d + 10.0 log r

---------------------------------------------------------------------

The orbital elements are published on M.P.E.C. 2021-B143.
The magnitudes graphs are made with Comet for Windows.

---------------------------------------------------------------------

Copyright(C) Seiichi Yoshida (comet@aerith.net). All rights reserved.